SCP
0 0 0 0 0 0 0 0 0 0 0 0 0 0 0 0 0 0 0 0 0 0
0 0 0 0 0 0 0 0 0 0 0 0 0 0 0 0 0 0 0 0 0 0
0 0 0 0 0 0 0 0 0 0 0 0 0 0 0 0 0 0 0 0 0 0
0 0 0 0 0 0 0 0 0 0 0 0 0 0 0 0 0 0 0 0 0 0
0 0 0 0 0 0 0 0 0 0 0 0 0 0 0 0 0 0 0 0 0 0
0 0 0 0 0 0 0 0 0 0 0 0 0 0 0 0 0 0 0 0 0 0
0 0 0 0 0 0 0 0 0 0 0 0 0 0 0 0 0 0 0 0 0 0
0 0 0 0 0 0 0 0 0 0 0 0 0 0 0 0 0 0 0 0 0 -0
0 0 0 0 0 0 0 0 0 0 0 0 0 0 0 0 -0 0 -0 -0 -0 -0
0 0 0 0 0 0 0 0 0 0 0 0 0 0 0 0 0 0 0 0 0 0
0 0 0 0 0 0 0 0 0 0 0 0 0 0 0 0 0 0 0 0 0 0
0 0 0 0 0 0 0 0 0 0 0 0 0 0 0 0 0 0 0 0 0 0
0 0 0 0 0 0 0 0 0 0 0 0 0 0 0 0 0 0 0 0 0 0
0 0 0 0 0 0 0 0 0 0 0 0 0 0 0 0 0 0 0 0 0 0
Wind_Speed_500mb
16 14 13 12 11 8 6 3 2 5 8 11 15 18 23 30 30 30 32 34 40 49
17 16 16 13 10 9 7 6 5 7 10 12 16 19 20 24 29 32 37 41 41 47
16 14 13 11 8 5 3 3 6 9 14 18 20 24 27 28 30 33 36 37 40 42
9 5 2 1 3 4 5 8 11 12 14 17 21 23 28 32 36 40 43 44 47 49
1 1 3 4 8 9 11 12 14 16 18 22 26 29 34 37 41 45 50 53 56 58
5 7 7 6 6 8 11 13 15 16 17 20 25 29 34 40 44 47 48 51 53 55
6 7 8 7 6 9 11 11 12 15 19 22 28 32 37 41 45 48 50 52 53 56
12 10 9 9 3 3 5 8 14 18 23 27 30 39 46 50 54 58 59 61 62 66
14 10 8 5 2 3 8 13 16 21 25 30 35 43 50 54 55 56 59 62 63 65
14 11 8 2 2 5 11 16 20 23 27 31 35 42 47 50 50 51 52 55 59 61
16 11 7 2 3 8 12 15 19 23 26 30 34 39 43 47 49 51 53 57 60 63
16 13 8 4 2 7 11 15 19 23 25 28 32 38 44 50 54 55 54 54 57 61
18 14 7 3 4 7 11 15 18 21 26 30 34 38 44 52 58 61 64 61 59 58
17 11 7 5 8 10 13 15 19 24 29 32 38 40 45 49 52 56 62 64 66 68
Wind_Direction_500mb
141 152 159 152 153 162 171 185 268 296 298 295 290 288 287 283 273 276 286 293 304 304
120 124 122 120 113 101 80 56 21 347 326 317 311 308 307 302 299 294 286 283 284 283
119 116 113 111 110 99 61 342 318 309 309 306 305 302 295 293 294 297 300 299 298 299
115 111 89 350 345 325 323 313 306 305 303 300 301 307 308 309 309 312 311 311 309 308
169 294 302 314 313 318 318 323 324 320 320 320 322 318 318 319 320 320 319 319 318 319
282 294 298 308 316 312 319 324 324 329 329 335 330 330 330 335 335 334 333 333 332 332
292 293 290 297 329 329 325 336 348 349 354 350 343 343 339 344 347 349 348 347 346 344
262 253 252 265 293 319 359 1 11 6 360 356 352 351 352 355 354 352 351 351 348 347
248 240 243 245 286 343 15 18 19 12 6 3 359 357 358 357 355 350 347 346 344 342
241 240 248 271 353 27 25 21 19 14 9 2 358 355 353 349 346 343 342 340 339 336
230 230 223 241 358 20 22 13 13 9 5 360 354 349 344 338 338 338 342 343 342 337
226 223 216 217 321 15 9 2 360 356 354 350 346 343 339 336 336 335 337 340 341 342
217 218 226 250 330 355 349 347 348 346 344 342 341 339 338 337 339 339 340 343 343 343
213 218 240 290 325 330 333 334 338 343 341 338 338 339 338 337 342 342 340 342 343 343
Wind_Speed_850mb
16 14 13 12 11 8 6 3 2 5 8 11 15 18 23 30 30 30 32 34 40 49
17 16 16 13 10 9 7 6 5 7 10 12 16 19 20 24 29 32 37 41 41 47
16 14 13 11 8 5 3 3 6 9 14 18 20 24 27 28 30 33 36 37 40 42
9 5 2 1 3 4 5 8 11 12 14 17 21 23 28 32 36 40 43 44 47 49
1 1 3 4 8 9 11 12 14 16 18 22 26 29 34 37 41 45 50 53 56 58
5 7 7 6 6 8 11 13 15 16 17 20 25 29 34 40 44 47 48 51 53 55
6 7 8 7 6 9 11 11 12 15 19 22 28 32 37 41 45 48 50 52 53 56
12 10 9 9 3 3 5 8 14 18 23 27 30 39 46 50 54 58 59 61 62 66
14 10 8 5 2 3 8 13 16 21 25 30 35 43 50 54 55 56 59 62 63 65
14 11 8 2 2 5 11 16 20 23 27 31 35 42 47 50 50 51 52 55 59 61
16 11 7 2 3 8 12 15 19 23 26 30 34 39 43 47 49 51 53 57 60 63
16 13 8 4 2 7 11 15 19 23 25 28 32 38 44 50 54 55 54 54 57 61
18 14 7 3 4 7 11 15 18 21 26 30 34 38 44 52 58 61 64 61 59 58
17 11 7 5 8 10 13 15 19 24 29 32 38 40 45 49 52 56 62 64 66 68
Wind_Direction_850mb
141 152 159 152 153 162 171 185 268 296 298 295 290 288 287 283 273 276 286 293 304 304
120 124 122 120 113 101 80 56 21 347 326 317 311 308 307 302 299 294 286 283 284 283
119 116 113 111 110 99 61 342 318 309 309 306 305 302 295 293 294 297 300 299 298 299
115 111 89 350 345 325 323 313 306 305 303 300 301 307 308 309 309 312 311 311 309 308
169 294 302 314 313 318 318 323 324 320 320 320 322 318 318 319 320 320 319 319 318 319
282 294 298 308 316 312 319 324 324 329 329 335 330 330 330 335 335 334 333 333 332 332
292 293 290 297 329 329 325 336 348 349 354 350 343 343 339 344 347 349 348 347 346 344
262 253 252 265 293 319 359 1 11 6 360 356 352 351 352 355 354 352 351 351 348 347
248 240 243 245 286 343 15 18 19 12 6 3 359 357 358 357 355 350 347 346 344 342
241 240 248 271 353 27 25 21 19 14 9 2 358 355 353 349 346 343 342 340 339 336
230 230 223 241 358 20 22 13 13 9 5 360 354 349 344 338 338 338 342 343 342 337
226 223 216 217 321 15 9 2 360 356 354 350 346 343 339 336 336 335 337 340 341 342
217 218 226 250 330 355 349 347 348 346 344 342 341 339 338 337 339 339 340 343 343 343
213 218 240 290 325 330 333 334 338 343 341 338 338 339 338 337 342 342 340 342 343 343